User: anonymous   Login
Location: Gleizolles
(44.4833°N, 6.7667°E)
Time: 02:29:50
(UTC+00:00)
Language:

ESTCUBE 1 - Orbit

View from above orbital plane
View from above orbital plane
View from above satellite
View from above satellite

Ground track
Ground track

The orbit data is extracted from the following two-line orbital elements,

1 39161U 13021C   22343.19212306  .00001165  00000-0  18739-3 0  9999
2 39161  97.8935  55.7838 0008384 217.0568 143.0078 14.73337027515192
Epoch (UTC): 09 December 2022 04:36:39
Eccentricity: 0.0008384
inclination: 97.8935°
perigee height: 644 km
apogee height: 656 km
right ascension of ascending node: 55.7838°
argument of perigee: 217.0568°
revolutions per day: 14.73337027
mean anomaly at epoch: 143.0078°
orbit number at epoch: 51519

The dashed part of the orbit path shows where the satellite is in the earth's shadow,  

DLR